| time (UTC) | temp F | wind direction | speed knots | gust knots | rain 1hr in | rain 24hr in | rain mn in | humidity % | barometer mb |
| 20260503021628 | 42 | 320 | 2.6 | 4.3 | 0.00 | 0.26 | 0.26 | 88 | 1014.1 |
| 20260503021527 | 42 | 343 | 0.9 | 3.5 | 0.00 | 0.26 | 0.26 | 88 | 1014.1 |
| 20260503020527 | 42 | 337 | 0.9 | 1.7 | 0.00 | 0.26 | 0.26 | 89 | 1014.4 |
| 20260503015528 | 42 | 347 | 1.7 | 3.5 | 0.00 | 0.26 | 0.26 | 90 | 1014.2 |
| 20260503014528 | 42 | 348 | 0.0 | 1.7 | 0.00 | 0.26 | 0.26 | 90 | 1014.3 |
| 20260503013528 | 43 | 350 | 1.7 | 2.6 | 0.00 | 0.26 | 0.26 | 91 | 1014.1 |
| 20260503012527 | 43 | 180 | 0.9 | 1.7 | 0.00 | 0.26 | 0.26 | 90 | 1014.2 |
| 20260503012428 | 43 | 2 | 0.0 | 1.7 | 0.00 | 0.26 | 0.26 | 91 | 1014.2 |
| 20260503011428 | 43 | 157 | 0.0 | 0.0 | 0.00 | 0.26 | 0.26 | 91 | 1014.1 |
| 20260503011327 | 43 | 157 | 0.0 | 0.0 | 0.00 | 0.26 | 0.26 | 90 | 1014.2 |
| 20260503010327 | 43 | 157 | 0.0 | 0.0 | 0.00 | 0.26 | 0.26 | 91 | 1013.9 |
| 20260503005328 | 44 | 242 | 1.7 | 2.6 | 0.00 | 0.26 | 0.26 | 91 | 1013.8 |
| 20260503004343 | 44 | 112 | 0.0 | 0.0 | 0.00 | 0.26 | 0.26 | 91 | 1013.6 |
| 20260503002428 | 44 | 112 | 0.0 | 0.0 | 0.00 | 0.26 | 0.26 | 91 | 1013.6 |
| 20260503001527 | 44 | 112 | 0.0 | 0.0 | 0.00 | 0.26 | 0.26 | 90 | 1013.7 |
| 20260503000529 | 45 | 112 | 0.0 | 0.0 | 0.00 | 0.26 | 0.26 | 91 | 1013.5 |
| 20260502235626 | 45 | 180 | 0.0 | 0.0 | 0.00 | 0.26 | 0.26 | 91 | 1013.5 |
| 20260502233629 | 45 | 180 | 0.0 | 0.0 | 0.00 | 0.26 | 0.26 | 90 | 1013.3 |
| 20260502232727 | 45 | 180 | 0.0 | 0.0 | 0.00 | 0.26 | 0.26 | 91 | 1013.3 |
| 20260502231728 | 46 | 180 | 0.0 | 0.0 | 0.00 | 0.26 | 0.26 | 91 | 1013.3 |
| 20260502230727 | 46 | 180 | 0.0 | 0.0 | 0.00 | 0.26 | 0.26 | 90 | 1013.4 |
| 20260502225728 | 46 | 180 | 0.0 | 0.0 | 0.00 | 0.26 | 0.26 | 91 | 1013.3 |
| 20260502224729 | 46 | 180 | 0.0 | 0.0 | 0.00 | 0.26 | 0.26 | 91 | 1013.1 |
| 20260502223742 | 46 | 180 | 0.0 | 0.0 | 0.01 | 0.26 | 0.26 | 91 | 1012.9 |
| 20260502222830 | 46 | 26 | 1.7 | 2.6 | 0.03 | 0.26 | 0.26 | 90 | 1013.0 |
| 20260502221829 | 46 | 180 | 1.7 | 1.7 | 0.03 | 0.26 | 0.26 | 90 | 1013.0 |
| 20260502220927 | 46 | 28 | 1.7 | 3.5 | 0.03 | 0.26 | 0.26 | 90 | 1012.9 |
| 20260502220827 | 46 | 71 | 2.6 | 3.5 | 0.03 | 0.26 | 0.26 | 89 | 1012.8 |
| 20260502215828 | 46 | 22 | 1.7 | 1.7 | 0.03 | 0.26 | 0.26 | 89 | 1012.9 |
| 20260502214828 | 46 | 360 | 0.9 | 1.7 | 0.03 | 0.26 | 0.26 | 88 | 1012.9 |
| 20260502212927 | 47 | 337 | 0.9 | 1.7 | 0.00 | 0.23 | 0.23 | 88 | 1012.8 |
| 20260502212826 | 47 | 37 | 0.0 | 1.7 | 0.00 | 0.23 | 0.23 | 87 | 1012.8 |
| 20260502211845 | 47 | 180 | 3.5 | 5.2 | 0.00 | 0.23 | 0.23 | 86 | 1012.7 |
| 20260502204846 | 49 | 337 | 0.9 | 1.7 | 0.00 | 0.23 | 0.23 | 81 | 1012.8 |
| 20260502204726 | 49 | 12 | 0.9 | 1.7 | 0.00 | 0.23 | 0.23 | 80 | 1012.7 |
| 20260502203728 | 50 | 116 | 1.7 | 2.6 | 0.00 | 0.23 | 0.23 | 77 | 1012.8 |
| 20260502202730 | 50 | 149 | 0.0 | 1.7 | 0.00 | 0.23 | 0.23 | 76 | 1012.7 |
| 20260502201729 | 51 | 339 | 0.0 | 1.7 | 0.00 | 0.23 | 0.23 | 76 | 1012.6 |
| 20260502200826 | 52 | 306 | 0.9 | 0.9 | 0.00 | 0.23 | 0.23 | 74 | 1012.6 |
| 20260502195827 | 52 | 153 | 0.0 | 1.7 | 0.00 | 0.23 | 0.23 | 74 | 1012.8 |
| 20260502194926 | 52 | 234 | 2.6 | 5.2 | 0.00 | 0.23 | 0.23 | 72 | 1012.5 |
| 20260502194828 | 52 | 240 | 1.7 | 3.5 | 0.00 | 0.23 | 0.23 | 73 | 1012.5 |
| 20260502192844 | 53 | 127 | 1.7 | 2.6 | 0.00 | 0.23 | 0.23 | 69 | 1012.7 |
| 20260502191831 | 54 | 211 | 1.7 | 4.3 | 0.00 | 0.23 | 0.23 | 65 | 1012.7 |
| 20260502184929 | 53 | 190 | 2.6 | 7.0 | 0.00 | 0.23 | 0.23 | 76 | 1012.8 |
| 20260502183026 | 52 | 272 | 3.5 | 6.1 | 0.00 | 0.23 | 0.23 | 82 | 1013.0 |
| 20260502181845 | 50 | 146 | 1.7 | 3.5 | 0.00 | 0.23 | 0.23 | 86 | 1013.3 |
| 20260502180927 | 50 | 258 | 2.6 | 5.2 | 0.00 | 0.23 | 0.23 | 88 | 1013.5 |
| 20260502164027 | 47 | 337 | 1.7 | 3.5 | 0.03 | 0.21 | 0.21 | 84 | 1013.7 |
| 20260502163029 | 51 | 265 | 3.5 | 5.2 | 0.00 | 0.18 | 0.18 | 79 | 1013.6 |
| 20260502151927 | 47 | 135 | 0.0 | 0.0 | 0.00 | 0.18 | 0.18 | 90 | 1014.3 |
| 20260502140127 | 43 | 22 | 0.9 | 0.9 | 0.00 | 0.18 | 0.18 | 90 | 1014.7 |
| 20260502130128 | 43 | 225 | 0.0 | 0.0 | 0.00 | 0.18 | 0.18 | 90 | 1014.8 |
| 20260502123228 | 43 | 157 | 0.0 | 0.0 | 0.01 | 0.18 | 0.18 | 91 | 1015.0 |
| 20260502122325 | 43 | 157 | 0.0 | 0.0 | 0.02 | 0.18 | 0.18 | 90 | 1015.0 |
| 20260502122229 | 43 | 157 | 0.0 | 0.0 | 0.02 | 0.18 | 0.18 | 91 | 1015.0 |
| 20260502121227 | 43 | 157 | 0.0 | 0.0 | 0.03 | 0.18 | 0.18 | 91 | 1015.0 |
| 20260502120226 | 43 | 157 | 0.0 | 0.0 | 0.03 | 0.18 | 0.18 | 91 | 1015.1 |
| 20260502115227 | 42 | 157 | 0.0 | 0.0 | 0.03 | 0.18 | 0.18 | 91 | 1015.0 |
| 20260502114227 | 42 | 157 | 0.0 | 0.0 | 0.03 | 0.18 | 0.18 | 91 | 1014.9 |
| 20260502112327 | 42 | 211 | 0.0 | 0.9 | 0.01 | 0.16 | 0.16 | 91 | 1015.0 |
| 20260502111328 | 42 | 247 | 0.9 | 2.6 | 0.00 | 0.15 | 0.15 | 91 | 1014.9 |
| 20260502110426 | 42 | 180 | 0.0 | 0.9 | 0.00 | 0.15 | 0.15 | 91 | 1014.7 |
| 20260502105428 | 42 | 180 | 0.0 | 0.0 | 0.01 | 0.15 | 0.15 | 90 | 1014.6 |
| 20260502104325 | 42 | 180 | 0.0 | 0.0 | 0.02 | 0.15 | 0.15 | 90 | 1014.4 |
| 20260502103343 | 42 | 180 | 0.0 | 0.0 | 0.03 | 0.15 | 0.15 | 90 | 1014.2 |
| 20260502102427 | 42 | 180 | 0.0 | 0.0 | 0.03 | 0.15 | 0.15 | 91 | 1014.3 |
| 20260502101427 | 42 | 180 | 0.0 | 0.0 | 0.05 | 0.15 | 0.15 | 90 | 1014.4 |
| 20260502100426 | 42 | 180 | 0.0 | 0.0 | 0.05 | 0.15 | 0.15 | 91 | 1014.5 |
| 20260502091428 | 42 | 180 | 0.9 | 0.9 | 0.05 | 0.10 | 0.10 | 90 | 1014.4 |
| 20260502090527 | 42 | 22 | 0.9 | 0.9 | 0.07 | 0.10 | 0.10 | 90 | 1014.4 |
| 20260502071228 | 42 | 157 | 0.0 | 0.0 | 0.01 | 0.01 | 0.01 | 90 | 1014.8 |
| 20260502070225 | 42 | 157 | 0.0 | 0.0 | 0.01 | 0.01 | 0.01 | 90 | 1014.8 |
| 20260502070141 | 42 | 157 | 0.9 | 1.7 | 0.01 | 0.01 | 0.01 | 90 | 1014.8 |
| 20260502065128 | 43 | 180 | 0.0 | 0.9 | 0.01 | 0.01 | 0.01 | 89 | 1014.8 |
| 20260502064127 | 43 | 180 | 0.9 | 1.7 | 0.01 | 0.01 | 0.01 | 89 | 1014.7 |
| 20260502063126 | 43 | 180 | 0.9 | 1.7 | 0.00 | 0.00 | 0.00 | 87 | 1014.9 |
| 20260502063026 | 43 | 180 | 0.9 | 0.9 | 0.00 | 0.00 | 0.00 | 88 | 1014.9 |
| 20260502061027 | 43 | 18 | 2.6 | 3.5 | 0.00 | 0.00 | 0.00 | 85 | 1015.0 |
| 20260502055125 | 42 | 337 | 0.0 | 0.0 | 0.00 | 0.00 | 0.00 | 84 | 1015.1 |
| 20260502054128 | 42 | 182 | 0.9 | 0.9 | 0.00 | 0.00 | 0.00 | 83 | 1015.0 |
| 20260502052226 | 42 | 180 | 2.6 | 3.5 | 0.00 | 0.00 | 0.00 | 79 | 1015.1 |
| 20260502051227 | 42 | 247 | 0.0 | 0.9 | 0.00 | 0.00 | 0.00 | 79 | 1015.1 |
| 20260502045326 | 42 | 139 | 0.9 | 2.6 | 0.00 | 0.00 | 0.00 | 78 | 1014.6 |
| 20260502045227 | 42 | 179 | 0.0 | 0.9 | 0.00 | 0.00 | 0.00 | 79 | 1014.7 |
| 20260502044227 | 42 | 247 | 0.9 | 1.7 | 0.00 | 0.00 | 0.00 | 78 | 1014.8 |
| 20260502044126 | 42 | 135 | 0.0 | 1.7 | 0.00 | 0.00 | 0.00 | 77 | 1014.8 |
| 20260502044026 | 42 | 112 | 0.0 | 0.0 | 0.00 | 0.00 | 0.00 | 77 | 1014.7 |
| 20260502042028 | 42 | 180 | 0.0 | 0.0 | 0.00 | 0.00 | 0.00 | 76 | 1014.5 |
| 20260502041125 | 42 | 180 | 0.0 | 0.0 | 0.00 | 0.00 | 0.00 | 76 | 1014.5 |
| 20260502040128 | 42 | 360 | 0.0 | 0.0 | 0.00 | 0.00 | 0.00 | 76 | 1014.5 |
| 20260502034135 | 42 | 180 | 0.0 | 0.0 | 0.00 | 0.00 | 0.00 | 76 | 1014.4 |
| 20260502034053 | 42 | 180 | 0.0 | 0.0 | 0.00 | 0.00 | 0.00 | 75 | 1014.4 |
| 20260502031135 | 42 | 157 | 0.0 | 0.0 | 0.00 | 0.00 | 0.00 | 75 | 1014.3 |
| 20260502030135 | 43 | 22 | 0.0 | 0.0 | 0.00 | 0.00 | 0.00 | 72 | 1014.3 |
| 20260502025135 | 43 | 22 | 0.0 | 0.0 | 0.00 | 0.00 | 0.00 | 71 | 1014.2 |
| 20260502024136 | 43 | 22 | 0.0 | 0.0 | 0.00 | 0.00 | 0.00 | 73 | 1014.3 |
| 20260502023234 | 42 | 22 | 0.0 | 0.0 | 0.00 | 0.00 | 0.00 | 74 | 1014.3 |
| 20260502022234 | 42 | 22 | 0.9 | 0.9 | 0.00 | 0.00 | 0.00 | 73 | 1014.3 |